Weather Roundup
Issued by NWS Chicago, IL

Home | Current Version | Previous Version | Text Only | Print | Product List | Glossary Off
Versions: 1 2 3 4 5 6 7 8 9 10 11 12 13 14 15 16 17 18 19 20 21 22 23 24 25 26 27 28 29 30 31 32 33 34 35 36 37 38 39 40 41 42 43 44 45 46 47 48 49 50

000
NZUS59 KLOT 301002
HRRLOT

CHICAGO AREA WEATHER ROUNDUP
NATIONAL WEATHER SERVICE CHICAGO/ROMEOVILLE IL
500 AM CDT SUN AUG 30 2015

NOTE: "FAIR" INDICATES FEW OR NO CLOUDS BELOW 12,000 FEET WITH NO
SIGNIFICANT WEATHER AND/OR OBSTRUCTIONS TO VISIBILITY.

* THESE STATIONS ARE NOT UNDER NWS QUALITY CONTROL. THEY ALSO MAY NOT
  REPORT WEATHER SUCH AS PRECIPITATION OR FOG.

ILZ005-006-012>014-019>023-301100-
NORTHEAST ILLINOIS

CITY           SKY/WX    TMP DP  RH WIND       PRES   REMARKS
OHARE          CLOUDY    65  63  93 N5        30.03R FOG
MIDWAY         CLOUDY    67  63  87 N6        30.03R FOG
AURORA         CLOUDY    64  63  96 NE6       30.04R FOG
WAUKEGAN       CLOUDY    63  63 100 NW3       30.03R FOG
DUPAGE AIRPORT CLOUDY    64  61  90 N3        30.03R FOG
WHEELING       CLOUDY    65  62  90 NE3       30.04S FOG
NORTHERLY IS     N/A     63  61  93 MISG        N/A
$$

WIZ051-052-058>065-066-070>072-301100-
SOUTHEAST WISCONSIN

CITY           SKY/WX    TMP DP  RH WIND       PRES   REMARKS
MILWAUKEE      FOG       63  62  97 CALM      30.04R VSB 1/4
KENOSHA*       CLOUDY    63  62  97 NW5       30.05R FOG
RACINE*        FOG       63  61  93 NW7       30.06R VSB 1/4
$$

INZ001>003-010>013-019-020-301100-
NORTHWEST INDIANA

CITY           SKY/WX    TMP DP  RH WIND       PRES   REMARKS
GARY*          CLOUDY    66  64  94 N6        30.03S FOG
MICHIGAN CITY* NOT AVBL
RENSSELAER*    NOT AVBL
VALPARAISO     CLOUDY    67  66  97 CALM      30.03R FOG
$$

LMZ740>746-301100-
SOUTHERN LAKE MICHIGAN

STATION/POSITION TIME  SKY/WX   TEMP WIND        PRES    VSBY
                                AIR  DIR/SP/G
                 (UTC)          (F)  (DEG/KT/KT) (MB)    (MI)
HARRISON CRIB    0900            62  330/ 10/ 12   N/A
BURNHAM HARBOR   0900            63   CALM  /  3   N/A
CALUMET HARBOR   NOT AVBL
BURNS HARBOR     0900            67  310/  8/ 10 1016.9S
MICHIGAN CITY    0900            67  280/  6/  6   N/A
$$

ABBREVIATIONS USED IN REMARKS
   TC - TEMPERATURE IN CELSIUS
  WCI - WIND CHILL INDEX
   HX - HEAT INDEX
  VSB - VISIBILITY
$$



USA.gov is the U.S. government's official web portal to all federal, state and local government web resources and services.